RH
47 51 57 63 67 68 67 67 68 70 75 83 89 94 98 99 97 93 91 93 101 95 87 95 99 99 94 89 80 75 73 61 54 50 41 34 33 32 29 26 23 22 21 27 29 21 22 23 25 30 28 25 23 21 20 22 21 22 26 23 22 21 19 18 18 20 20 18 17 19 21 20 19 19 20 20 20 20 20 20 20 19 21 25 24 20 20 22 25 29 28 25 23 26 29 27 26
34 35 36 40 45 51 58 61 62 59 59 65 70 80 89 88 88 88 89 92 88 83 93 101 96 94 93 89 83 77 72 63 61 57 46 37 34 33 30 24 21 23 22 25 25 18 18 20 22 25 23 21 20 20 23 24 22 23 23 20 19 19 18 18 19 19 20 20 18 20 22 20 20 21 21 21 21 21 21 21 21 21 24 24 22 22 24 27 28 28 26 24 25 27 28 25 26
28 28 29 30 30 33 38 43 49 49 49 53 56 64 68 65 66 69 71 75 73 79 96 96 91 92 90 85 77 71 68 64 59 51 44 37 33 30 30 26 22 25 25 23 23 19 21 23 22 22 21 23 25 24 25 24 24 23 20 20 20 20 22 22 20 19 20 22 21 22 22 21 21 22 22 22 22 22 22 22 22 22 23 23 22 25 28 30 28 25 24 24 26 26 25 26 27
27 27 26 27 27 27 27 29 32 34 36 38 42 45 44 41 41 42 44 49 51 64 76 75 75 74 71 68 61 57 54 51 45 41 37 30 26 25 28 24 21 25 23 21 23 26 29 31 29 26 28 29 28 29 27 24 23 23 23 22 22 23 24 24 23 21 22 24 23 23 22 22 22 23 23 23 23 23 24 23 23 24 24 25 27 30 30 29 25 23 25 26 25 23 25 28 28
27 27 27 27 26 27 27 28 28 28 29 29 30 31 29 28 28 28 28 28 30 41 48 47 48 46 45 42 38 36 33 33 31 31 30 26 23 21 22 20 24 30 28 27 27 28 30 35 36 30 32 32 29 32 30 26 23 23 27 25 24 25 24 26 26 24 25 25 23 24 23 23 24 24 24 23 24 24 25 25 26 28 27 27 31 33 30 26 24 25 27 25 23 24 27 29 30
28 28 28 28 27 27 27 27 28 28 29 29 30 29 28 26 24 24 24 22 23 27 28 27 27 26 26 25 24 24 24 24 22 25 27 27 25 24 27 27 31 31 34 38 35 33 32 35 37 34 33 33 32 34 33 28 25 25 27 25 26 29 28 28 27 26 26 25 24 24 24 23 24 25 25 24 25 26 26 27 28 30 29 29 32 31 28 26 26 27 27 24 24 27 29 31 36
29 29 29 29 29 29 29 29 29 29 30 30 31 32 30 26 26 26 25 25 24 24 23 22 22 22 22 22 23 21 24 24 22 28 29 25 25 32 35 36 37 34 38 42 43 41 36 37 39 41 41 37 32 32 33 30 29 28 27 29 31 31 30 29 28 29 27 25 25 24 25 26 28 27 26 26 27 27 28 31 31 32 32 31 30 27 26 27 28 28 27 25 27 30 32 37 46
30 30 31 31 31 31 31 31 31 32 32 32 31 33 30 27 27 28 29 28 26 25 24 26 25 26 25 24 25 23 25 27 25 28 32 32 30 38 40 36 38 36 39 44 50 47 39 43 40 38 40 38 34 33 37 34 32 31 31 33 32 30 30 30 30 30 27 27 27 26 29 32 34 30 27 30 31 29 32 37 35 34 35 32 28 27 28 29 29 28 28 29 32 36 40 46 54
32 32 32 32 33 33 34 34 34 34 35 35 34 34 31 30 28 29 31 29 28 27 26 28 29 29 28 27 27 25 28 29 25 24 29 30 26 35 34 29 36 36 41 51 54 48 43 47 40 32 36 39 39 38 39 36 34 34 34 34 32 32 32 32 32 31 30 33 34 31 31 35 36 33 31 33 34 33 35 39 38 34 32 28 27 28 29 31 31 32 35 38 42 46 50 56 62
33 33 33 34 34 34 36 36 37 37 38 39 37 34 33 32 30 31 33 33 31 30 29 29 31 30 28 29 29 29 34 34 31 31 32 36 38 42 39 34 41 41 47 51 45 44 47 48 41 38 40 41 42 43 42 38 36 37 36 36 36 36 35 35 35 34 34 37 38 33 34 36 37 36 36 36 35 34 35 38 35 29 27 27 28 28 31 33 36 41 47 51 56 60 63 69 70
34 34 35 35 36 36 37 37 38 38 40 41 37 34 33 32 34 37 35 36 34 31 30 29 33 32 31 32 31 31 34 35 37 49 61 69 69 68 68 61 56 53 51 47 44 51 57 57 55 52 48 45 48 48 43 38 39 41 41 44 45 42 39 40 41 38 34 35 35 34 36 37 37 38 38 38 35 34 36 36 31 27 27 28 29 31 34 37 47 59 68 71 75 80 80 81 75
36 36 36 37 37 37 37 37 39 39 41 40 36 33 34 34 37 38 33 34 34 33 32 31 34 33 33 34 33 32 31 32 31 51 79 88 92 97 95 78 64 55 51 56 62 67 69 69 68 65 59 52 50 49 44 43 45 47 50 54 50 45 44 47 46 40 36 36 37 39 42 42 43 45 44 40 36 35 33 30 29 27 28 32 35 37 40 49 65 81 93 93 94 99 93 86 74
39 39 38 39 38 38 38 38 39 39 41 40 35 32 34 36 36 35 33 35 35 34 33 31 34 34 34 34 33 33 32 32 25 37 58 64 73 84 74 54 47 44 58 79 78 75 79 78 72 65 57 50 50 53 52 49 52 55 55 51 48 51 55 53 47 45 45 42 42 46 50 52 51 47 42 38 37 35 32 32 30 30 35 36 36 43 54 63 75 91 103 101 102 104 95 85 67
41 40 39 39 39 39 38 39 39 38 41 41 36 32 32 34 35 36 34 34 33 33 33 30 32 33 33 33 33 33 31 32 29 31 33 34 38 42 42 40 44 50 69 83 75 77 81 75 64 53 51 55 56 54 52 53 59 58 50 48 53 58 56 49 44 47 47 44 49 53 53 51 47 44 43 43 41 36 33 33 34 43 47 40 42 58 68 68 78 97 103 100 103 100 92 81 59
42 41 41 41 40 41 40 41 40 40 43 41 36 33 33 34 34 35 33 31 32 32 31 28 30 32 31 30 31 31 30 29 31 31 28 36 41 40 45 50 55 64 75 79 76 75 70 64 55 53 61 66 58 51 54 59 59 52 51 57 59 57 53 47 44 46 45 49 57 54 51 48 49 52 51 44 39 39 40 39 46 60 58 52 63 76 78 79 91 102 102 102 103 99 93 78 55
44 43 43 43 42 42 42 42 42 42 43 41 37 34 33 32 33 35 34 31 32 31 27 25 26 28 27 27 28 27 28 26 26 28 27 33 36 37 45 52 62 70 75 79 78 67 57 55 51 55 61 56 48 51 61 63 60 61 68 69 62 57 53 48 47 45 45 51 56 51 50 54 59 57 49 45 48 49 50 53 59 68 74 78 85 92 96 98 100 100 102 103 100 103 95 78 59
46 46 45 45 45 45 45 44 44 42 42 43 38 32 33 35 36 37 33 30 30 28 25 24 24 25 25 25 26 24 24 23 22 23 23 23 22 27 38 48 57 59 56 55 55 50 44 45 51 56 53 49 51 63 76 76 73 76 78 69 56 49 47 47 43 40 44 47 47 47 52 58 60 54 47 52 57 54 59 71 72 77 87 92 96 97 96 98 100 100 104 102 98 102 91 78 64
48 48 47 47 46 47 47 46 44 39 39 45 39 31 33 36 34 30 27 27 26 24 22 21 21 20 21 21 21 21 20 19 20 19 19 21 20 24 32 39 46 49 52 57 59 57 55 59 64 56 49 53 62 77 87 85 78 71 67 56 43 41 40 38 38 44 51 48 45 51 58 55 51 49 54 60 62 66 79 89 84 82 85 91 99 86 72 84 100 101 104 102 94 92 82 75 62
49 48 47 48 47 47 46 43 38 34 37 43 38 27 26 29 26 19 19 22 19 17 15 13 14 15 16 17 17 16 15 15 16 16 20 24 21 23 27 29 35 39 46 61 67 63 60 61 59 50 53 66 72 77 75 73 68 58 52 42 36 36 31 37 53 62 56 50 53 60 59 52 52 64 75 75 79 89 92 92 89 88 89 98 96 76 74 91 102 102 105 101 86 83 81 73 60
47 44 44 44 42 40 36 32 27 28 30 29 26 19 19 21 16 13 13 15 14 12 11 9 10 12 14 16 15 13 13 13 13 16 19 20 19 20 23 24 29 30 30 41 46 45 46 49 56 62 71 78 75 72 70 69 60 50 42 35 34 31 34 54 63 54 53 61 63 67 68 60 64 79 82 66 67 85 94 97 96 96 99 102 89 78 92 99 100 102 103 97 84 87 87 74 64
37 33 33 31 28 25 22 19 18 20 20 19 19 16 15 13 13 16 13 12 13 12 12 10 10 13 18 18 16 16 18 15 15 19 24 26 24 21 24 24 27 28 23 26 29 34 45 53 62 68 75 80 78 79 82 70 52 44 40 37 34 32 40 55 52 47 68 91 87 84 80 62 58 70 78 62 46 60 91 105 99 100 102 97 89 91 100 99 101 102 99 95 87 92 84 73 66
25 22 20 19 16 16 17 14 14 17 18 19 19 15 14 14 17 19 14 14 15 15 16 15 14 15 22 21 17 18 20 19 19 21 26 35 33 26 27 24 28 39 42 43 38 40 57 62 59 63 73 74 69 73 73 61 52 49 46 39 31 33 42 42 41 43 65 99 102 88 72 60 64 64 62 57 39 45 80 95 92 97 94 91 96 99 100 98 102 100 99 98 90 89 77 72 68
23 20 18 19 18 18 20 18 16 19 21 21 19 18 18 19 20 18 16 18 18 20 20 19 16 18 25 23 19 22 23 22 23 22 22 28 31 27 31 33 33 43 66 82 71 64 73 68 57 59 64 61 61 67 66 60 56 51 44 36 29 36 42 35 37 41 61 96 100 89 83 83 84 63 46 51 51 56 68 66 64 68 65 80 100 103 101 99 101 98 100 97 87 88 80 79 72
25 22 21 23 21 20 20 19 17 17 19 18 17 18 18 20 19 17 20 21 19 20 22 22 20 21 24 22 21 26 29 26 24 28 27 27 34 34 40 59 64 57 73 97 93 83 76 66 60 54 56 71 83 82 71 56 46 39 34 31 27 32 32 29 46 61 72 86 82 79 82 78 73 59 54 62 63 58 54 46 47 52 59 87 102 97 99 100 99 99 102 90 78 88 92 92 73
21 19 18 18 16 16 15 14 14 13 13 12 13 13 14 16 15 16 19 19 19 21 24 24 21 23 25 24 23 24 30 29 24 27 25 26 36 44 56 79 93 84 85 100 102 88 67 59 64 64 73 92 93 77 59 41 33 32 29 27 24 25 25 25 42 52 48 49 47 47 49 50 56 62 67 69 63 55 54 54 57 70 86 103 100 86 94 101 98 102 103 86 76 90 100 100 73
15 14 14 13 12 12 11 11 11 11 11 10 11 11 11 12 13 14 15 15 18 19 22 22 22 23 22 24 21 21 26 24 27 27 30 48 55 61 83 97 99 98 100 106 101 78 57 60 76 83 84 78 70 65 53 34 28 28 26 26 22 21 23 22 27 29 27 29 30 34 44 54 64 69 71 69 65 64 72 78 80 90 96 100 103 97 99 101 96 101 102 92 88 94 102 101 70
13 14 13 12 13 13 14 15 14 14 14 14 15 14 14 15 15 14 12 16 16 14 18 20 21 19 21 31 29 26 27 28 38 37 52 88 85 75 94 102 99 101 98 97 94 82 74 82 87 77 61 53 59 64 52 35 27 25 23 23 21 18 20 20 21 22 23 23 24 30 44 64 73 68 66 68 64 62 70 77 73 69 62 65 92 105 101 96 93 98 101 100 95 92 99 88 61
18 19 17 19 21 21 22 21 20 20 19 19 19 18 18 18 17 15 14 17 14 14 18 21 23 19 20 31 31 28 30 40 41 33 62 103 99 91 101 102 101 96 81 80 94 96 84 82 78 62 52 59 63 51 36 29 24 22 21 21 19 18 19 18 18 20 25 36 41 38 37 48 54 46 48 57 55 52 61 69 60 48 45 48 74 101 102 96 97 99 100 103 95 94 97 75 65
29 28 27 27 26 26 25 23 22 21 19 20 19 18 18 17 16 15 16 16 14 15 17 21 27 23 22 25 30 32 33 40 32 30 73 104 101 101 102 102 103 96 90 96 103 90 70 67 69 63 60 62 52 33 25 23 21 20 20 20 18 18 18 19 27 37 49 70 74 58 43 37 40 43 42 40 38 47 60 64 53 46 56 59 71 99 105 99 100 98 100 102 94 99 98 76 83
34 32 30 27 27 25 22 22 23 22 20 21 21 19 19 18 17 15 17 16 14 16 16 20 25 28 34 32 30 35 33 29 24 50 94 102 99 104 101 102 103 101 102 96 85 71 65 65 61 54 49 43 32 24 21 20 20 19 18 18 17 17 18 22 40 57 66 75 71 58 49 40 41 44 41 38 40 53 60 58 51 40 49 67 80 99 106 101 101 101 101 100 98 102 96 83 93
30 29 28 27 28 24 24 29 29 25 22 25 26 23 22 22 19 18 19 19 18 19 20 24 27 30 37 35 28 28 27 23 29 69 104 101 102 105 101 104 103 99 91 76 70 68 63 53 44 39 34 32 30 26 23 22 22 19 19 18 16 17 17 18 27 41 50 52 46 42 40 36 36 34 42 63 74 75 62 45 39 25 31 70 93 99 100 100 103 104 100 98 101 101 93 91 100
30 32 32 33 34 27 30 38 37 30 26 34 38 30 27 23 20 23 24 23 23 22 23 27 27 29 37 43 43 34 28 31 44 77 98 97 103 104 100 105 100 91 84 80 78 71 61 51 47 44 39 42 44 38 29 23 20 19 19 17 16 16 15 16 15 18 25 26 23 22 22 25 30 29 39 65 75 76 68 43 31 41 61 87 98 95 95 99 103 101 96 98 101 98 96 98 103
38 40 39 43 43 33 34 44 51 41 31 47 54 39 33 27 22 29 30 25 26 25 25 26 26 27 31 40 55 63 59 47 45 75 99 98 100 103 102 104 98 86 83 81 70 66 71 67 60 54 49 47 42 34 26 21 20 18 17 17 16 16 14 15 15 14 15 15 15 15 17 20 22 22 25 37 38 40 56 46 35 69 100 102 100 97 98 99 99 99 98 101 102 98 101 101 102
46 48 49 53 55 48 43 47 59 55 43 57 67 53 43 35 28 34 37 33 29 31 30 27 29 31 31 44 68 83 80 58 39 58 91 101 102 105 101 99 95 88 86 83 75 78 82 71 62 59 50 40 31 28 25 22 22 20 20 19 18 19 18 18 18 18 19 18 20 20 21 21 20 23 22 26 26 23 42 50 51 82 103 102 95 89 97 101 99 101 101 103 103 100 102 101 101
57 58 58 63 67 65 56 47 55 68 62 62 73 68 52 42 38 37 41 45 38 35 38 33 31 34 35 47 69 79 79 79 66 53 62 82 99 106 102 98 96 96 98 96 91 87 82 73 68 59 43 33 30 29 27 24 25 24 24 23 23 24 23 24 24 24 25 24 26 27 28 29 26 28 27 27 29 24 31 42 56 82 100 102 78 63 87 105 102 95 89 98 105 100 101 102 101
65 63 64 70 73 70 64 51 51 71 77 70 72 70 59 53 51 44 43 55 55 43 44 44 39 41 42 45 67 91 96 99 100 83 69 75 88 95 99 98 99 103 101 94 90 86 84 82 70 51 38 35 34 32 30 29 29 29 28 27 27 28 27 28 29 29 30 29 31 32 33 35 32 32 34 34 34 31 30 29 37 68 102 103 64 48 68 87 101 91 78 96 104 98 99 100 101
73 73 71 71 73 72 64 51 50 71 87 83 74 69 72 72 66 57 47 55 70 59 47 52 49 48 55 54 62 85 96 96 101 94 76 70 71 78 96 103 99 102 99 92 92 95 94 83 60 46 43 41 37 34 33 33 34 32 32 31 29 30 30 30 31 33 33 32 34 37 38 40 38 38 39 39 40 37 37 34 34 59 96 91 57 50 53 56 78 79 78 99 102 98 100 98 101
79 78 74 71 72 74 64 51 56 74 84 82 74 69 77 84 80 71 55 52 72 70 54 58 60 53 58 63 57 59 69 71 72 68 59 60 62 74 97 99 91 98 100 97 97 101 98 77 56 51 49 44 39 37 37 37 38 36 33 33 32 32 32 32 34 36 37 38 40 42 44 46 45 45 45 45 47 44 41 41 40 49 72 72 51 53 59 59 69 69 81 102 100 99 101 99 102
81 78 76 74 71 73 68 55 53 63 69 68 68 72 77 87 92 87 73 69 77 74 66 70 71 61 55 58 55 54 60 59 55 56 55 57 72 94 99 83 82 97 100 99 100 100 95 74 62 62 54 46 44 41 41 41 42 42 38 36 36 36 36 35 37 39 42 44 46 49 52 54 54 53 53 51 51 51 48 47 48 49 55 56 45 48 61 73 87 87 90 100 99 100 100 99 102
80 78 76 74 70 71 67 56 47 49 61 63 61 72 82 88 98 96 81 76 77 70 69 75 74 70 63 54 50 51 62 68 64 62 57 56 76 93 84 70 81 98 101 101 100 99 96 79 70 74 66 54 50 46 45 46 47 48 45 42 42 42 41 41 41 43 47 50 53 56 59 61 62 61 60 60 57 56 54 52 54 55 55 53 46 46 54 71 94 101 98 101 100 99 99 99 100
79 77 76 73 68 66 62 58 55 50 53 60 59 71 84 83 87 89 78 73 73 65 65 73 75 76 74 65 57 51 56 65 69 70 62 58 66 70 72 81 89 97 104 103 98 94 92 85 80 84 81 68 58 54 51 49 51 54 52 50 49 49 48 48 50 51 53 56 60 62 65 67 68 68 66 65 64 61 60 59 59 59 60 57 50 46 49 66 94 103 100 102 100 99 100 100 100
78 76 74 71 66 65 64 64 67 62 55 58 63 71 80 82 81 82 75 70 72 66 62 69 75 76 76 72 64 56 53 57 67 78 68 59 65 67 75 81 75 86 101 99 97 93 83 86 93 94 94 84 69 64 60 56 55 54 54 55 55 56 57 56 58 61 63 67 70 71 72 72 71 72 71 70 70 67 63 62 61 62 62 60 55 50 46 56 85 103 102 101 101 100 100 99 101
74 73 71 69 67 66 67 71 75 79 74 65 67 74 78 85 91 87 73 64 73 77 65 60 65 69 72 71 66 61 56 51 59 76 75 66 69 76 81 77 70 85 99 97 100 95 80 87 100 102 102 96 82 73 69 65 61 56 54 56 57 60 64 65 66 68 71 74 77 80 82 83 83 83 82 81 79 78 73 67 63 62 63 64 60 55 49 47 63 89 102 102 100 101 100 99 101
70 69 70 69 69 64 68 80 80 83 85 74 74 79 77 87 100 95 78 69 75 80 72 63 61 61 69 75 70 64 61 55 56 68 77 74 68 69 74 77 81 92 97 98 99 89 82 91 102 106 106 103 94 82 78 78 73 63 59 58 58 59 63 69 72 74 78 80 85 91 97 100 99 96 95 94 91 89 85 78 73 68 64 65 64 60 57 52 51 63 86 101 100 99 100 99 100
67 68 74 71 68 63 70 87 89 87 84 78 83 84 78 88 102 101 92 83 78 76 75 72 66 64 72 79 76 74 73 67 61 62 72 76 71 71 76 77 84 95 99 100 98 92 94 100 99 100 104 107 99 86 84 90 84 72 66 64 64 63 62 66 71 76 82 88 93 100 106 106 102 100 99 99 98 96 94 90 86 83 77 72 70 67 63 60 55 50 66 94 102 98 100 100 100
63 69 79 76 73 71 76 86 94 92 76 76 94 94 90 97 103 104 94 79 75 76 71 70 73 73 69 72 81 89 88 81 76 69 66 70 71 77 83 80 75 78 82 92 102 102 102 103 92 85 96 107 98 84 84 93 91 82 77 74 72 70 67 66 67 72 79 88 96 102 107 107 104 103 101 100 100 99 99 97 94 93 92 88 85 84 77 69 64 55 57 82 100 99 99 100 99
55 62 70 72 78 82 83 82 84 81 70 80 98 96 96 99 96 97 84 63 71 85 75 68 79 79 67 70 81 82 81 89 96 81 66 73 81 78 76 75 73 70 66 75 95 101 102 102 86 74 87 102 97 84 84 93 93 90 87 83 82 80 76 71 67 68 72 79 87 95 102 104 104 105 104 103 103 101 100 100 98 97 97 95 92 93 91 80 70 63 58 71 92 99 99 100 99
54 56 56 60 69 73 76 74 70 69 72 88 95 89 89 87 89 98 83 61 69 90 90 79 77 75 72 81 82 69 69 85 91 78 70 81 91 86 79 75 73 73 67 67 84 102 108 99 80 72 81 93 96 87 85 95 97 95 94 90 86 86 85 81 74 70 69 71 75 82 91 96 99 102 103 103 105 105 104 102 101 100 99 99 93 88 88 83 74 69 62 64 78 90 96 98 99
60 59 56 57 60 60 62 64 65 66 75 88 88 86 87 82 91 98 81 70 75 90 99 90 81 80 79 81 74 64 70 77 74 74 79 82 80 81 87 87 79 74 70 64 73 95 101 84 72 75 79 88 96 89 86 97 100 98 99 95 90 89 91 92 86 79 73 71 71 72 76 82 88 93 97 99 101 103 105 105 105 103 101 101 100 93 86 81 77 74 71 66 68 77 86 90 94
67 66 64 63 63 62 61 61 63 63 67 72 71 81 94 93 99 93 77 84 98 101 100 93 90 89 81 76 69 64 70 72 72 81 86 79 71 68 75 84 82 78 77 70 64 72 74 64 66 73 74 85 95 87 83 92 95 95 99 99 95 91 93 96 96 92 85 79 76 73 70 70 73 80 87 93 97 100 101 103 105 106 105 103 102 101 96 87 82 78 75 70 65 66 71 76 82
75 74 72 73 71 70 66 61 62 60 58 59 60 72 85 90 101 97 83 96 109 106 101 95 92 86 78 74 69 67 73 71 73 80 79 73 71 70 69 73 74 74 81 83 72 65 62 57 61 63 62 75 88 84 83 86 85 86 91 97 98 95 97 100 99 98 95 90 86 82 78 73 69 68 73 80 87 94 98 101 102 103 104 106 105 105 103 97 90 83 78 75 71 67 64 64 67
83 83 81 81 78 75 72 67 64 61 58 58 57 61 65 72 92 94 88 99 108 106 102 93 85 78 76 76 71 73 78 76 74 78 79 76 75 74 74 74 73 70 74 78 73 68 65 59 57 56 55 64 73 73 76 80 82 85 87 90 92 94 96 99 101 101 100 97 93 89 89 87 82 75 70 71 74 81 87 93 98 99 98 101 105 105 105 103 100 95 88 82 79 76 71 66 62
88 91 89 84 80 76 75 73 69 64 62 59 56 58 61 69 83 84 80 86 90 94 95 87 85 85 80 81 83 82 79 75 76 81 83 82 78 77 77 75 75 74 72 73 70 69 68 62 58 57 55 57 62 62 62 67 72 79 85 87 89 93 96 98 101 101 99 99 96 93 93 94 93 90 83 77 74 74 77 80 85 91 93 95 100 103 104 103 102 101 99 94 89 84 81 79 72
88 93 92 84 81 79 75 73 69 64 63 62 61 62 67 78 84 79 76 76 73 78 82 81 87 87 80 85 92 89 86 83 82 84 85 81 76 75 75 74 74 75 74 73 71 69 68 64 61 57 53 56 61 58 56 59 63 67 74 79 83 90 95 98 101 101 100 100 98 96 98 98 98 98 96 92 85 79 77 77 77 79 82 84 89 96 101 104 105 104 103 102 99 95 90 89 87
85 88 88 85 85 83 78 75 72 67 65 65 66 67 74 90 90 76 72 77 79 81 82 82 84 77 72 83 90 83 81 84 83 84 84 80 77 75 73 72 72 71 71 71 70 69 67 65 63 58 55 60 66 62 56 55 58 61 65 69 73 78 81 85 92 99 102 102 102 101 100 101 101 101 101 100 97 89 83 80 76 75 77 77 77 82 88 96 103 106 105 105 104 103 102 99 97
84 83 82 83 82 80 79 79 75 72 73 75 76 75 81 92 94 81 74 80 90 95 92 85 79 73 70 77 83 78 74 75 77 78 78 77 75 73 70 69 67 66 66 65 65 64 64 62 61 59 57 59 69 76 77 70 62 61 62 64 67 69 68 69 75 84 92 98 102 104 102 101 102 102 103 103 102 99 94 90 85 78 75 74 73 75 76 81 89 96 102 107 107 106 106 105 103
84 82 78 74 75 79 83 85 84 84 90 93 89 87 91 95 100 99 94 96 102 106 103 89 77 75 74 71 74 77 75 72 70 69 68 68 66 64 63 61 61 60 59 59 58 58 58 57 56 56 55 57 65 77 93 93 76 63 59 58 61 63 62 64 66 69 75 82 93 101 100 99 101 100 100 102 104 102 99 99 100 92 83 76 72 71 72 74 78 83 90 98 104 107 107 106 108
85 81 79 72 74 86 89 92 98 100 103 103 98 99 102 102 105 105 105 106 104 107 109 99 87 83 79 72 70 72 72 69 66 64 63 62 60 59 59 57 56 56 54 54 53 52 52 51 50 50 49 53 58 65 84 92 75 58 54 53 55 56 57 59 61 63 64 67 80 89 87 88 97 101 101 102 104 104 98 96 101 101 96 89 80 74 71 72 75 78 82 87 92 98 104 107 110
Wind_Speed
85 85 86 86 86 86 86 86 86 85 84 85 85 87 90 90 89 87 84 82 83 84 77 79 83 83 85 87 87 86 88 88 87 89 87 83 81 81 83 83 82 82 82 81 80 80 80 79 79 78 78 80 81 80 79 78 77 77 77 77 79 79 79 79 78 77 78 78 78 77 77 77 77 77 76 76 75 75 75 74 74 73 72 71 71 71 72 70 68 66 66 67 67 66 66 66 66
84 85 85 86 86 87 87 87 87 87 86 87 89 91 95 94 90 90 88 86 86 81 79 85 88 86 87 89 90 89 89 89 89 90 88 84 82 82 82 81 81 81 81 80 80 80 80 79 79 80 80 81 81 80 79 78 77 77 78 80 80 80 81 80 79 79 79 79 79 78 77 77 77 77 76 76 76 75 75 75 74 73 71 71 72 72 70 68 67 67 68 68 67 66 67 67 66
84 84 84 85 85 85 86 86 87 87 87 88 91 95 98 96 92 93 90 88 86 81 85 91 90 89 90 91 92 90 90 90 90 90 88 85 83 82 78 78 79 81 81 80 81 81 80 80 80 81 81 80 80 80 79 79 79 79 81 82 82 82 81 80 80 80 80 79 79 79 78 78 77 77 77 76 76 75 75 75 74 73 72 72 72 70 68 68 68 69 69 68 67 67 67 66 64
85 85 84 85 85 85 85 85 86 86 86 87 90 96 98 95 93 92 89 87 85 83 90 93 91 90 90 92 92 90 89 90 90 88 86 85 84 81 78 79 82 82 82 82 82 80 79 79 79 80 80 80 80 81 81 81 81 81 82 82 82 82 81 81 81 80 79 79 79 79 78 78 77 76 76 75 75 75 75 74 74 73 72 72 70 68 68 68 70 70 69 67 67 67 65 63 61
86 86 85 86 85 85 85 85 85 85 86 86 89 95 96 94 92 88 87 85 82 85 91 91 90 89 88 90 90 89 88 87 87 84 82 83 84 83 81 82 82 81 81 82 82 81 80 79 79 80 80 81 82 82 82 82 83 83 82 81 83 82 82 82 81 80 79 79 79 79 78 78 77 76 75 75 75 75 75 74 73 72 72 71 70 68 69 70 71 70 67 66 66 65 63 61 59
88 88 87 87 87 86 86 86 86 86 86 87 89 94 98 95 89 85 86 83 82 86 91 89 88 87 87 88 88 87 86 86 86 83 81 82 82 81 81 81 82 82 81 80 82 82 81 81 82 82 82 83 82 82 82 83 85 84 83 83 83 82 81 81 81 81 79 79 79 78 78 78 77 76 76 76 75 75 74 74 73 72 71 71 69 69 70 70 69 68 66 65 64 63 61 58 55
90 89 89 89 89 88 88 87 87 87 88 90 91 95 100 95 86 84 86 85 85 88 89 88 87 87 88 88 88 87 86 87 85 83 83 84 83 82 80 81 83 83 82 82 83 83 83 83 83 83 83 83 83 84 85 86 85 84 84 83 81 81 81 81 81 80 79 79 79 79 78 77 77 76 76 76 75 75 74 73 72 72 71 70 69 69 69 69 68 66 65 63 62 60 57 53 51
92 91 91 91 91 90 89 89 89 89 91 93 93 97 101 95 84 84 88 89 89 90 89 88 88 88 89 88 89 89 88 87 85 84 85 84 85 83 81 82 85 85 86 87 85 85 85 85 84 85 85 85 85 85 85 86 84 83 83 82 81 81 81 80 80 79 80 79 78 78 77 76 76 76 76 75 74 73 73 72 72 71 70 69 68 68 67 67 65 64 63 61 58 55 52 50 48
93 93 93 93 92 92 91 91 91 91 93 95 97 99 100 95 87 83 89 93 93 93 90 88 89 90 90 89 90 90 89 88 87 87 88 89 89 88 88 89 89 89 89 87 85 86 86 86 87 87 86 85 85 84 84 84 83 82 81 81 82 81 80 79 79 79 78 77 76 76 76 77 77 77 76 75 74 73 73 72 72 70 69 68 66 66 65 64 62 61 59 56 53 51 50 47 45
95 95 95 95 94 94 93 93 93 94 95 98 102 102 98 95 89 86 90 96 97 95 92 89 90 92 90 89 90 90 86 83 83 85 86 88 87 86 89 89 88 89 88 88 88 88 87 87 88 87 85 84 83 82 82 82 82 81 81 81 81 79 78 78 78 77 76 76 76 76 77 77 77 77 76 75 74 73 73 71 70 69 68 66 65 63 61 60 58 57 54 52 50 49 46 44 44
97 97 97 97 96 96 95 95 95 96 97 102 106 103 98 93 89 90 95 98 100 98 94 91 91 93 91 90 91 90 86 80 74 73 77 79 80 80 79 78 81 84 86 89 89 86 85 84 83 82 82 81 80 81 82 82 82 81 80 78 77 77 77 77 77 77 77 76 77 77 77 77 77 77 76 75 73 72 71 70 69 67 66 64 62 59 56 55 53 51 50 49 48 45 43 43 44
98 99 99 98 98 98 98 97 97 98 100 106 109 103 98 94 91 96 100 99 100 99 97 94 93 94 92 93 93 92 90 86 75 69 75 78 76 75 73 75 80 84 86 87 85 83 83 82 80 79 78 79 80 82 82 81 80 79 78 76 77 79 78 77 76 77 77 76 76 77 76 76 75 74 74 73 72 71 70 69 67 65 64 61 57 55 53 50 48 48 47 46 44 43 43 43 42
99 100 100 99 100 99 100 99 100 101 102 108 111 105 99 96 95 98 101 100 102 102 101 99 96 96 95 95 95 94 93 92 84 77 84 87 82 81 82 87 90 90 88 84 83 82 81 80 80 80 81 82 83 82 80 80 80 79 78 79 80 78 77 76 76 76 75 75 75 75 74 72 71 71 72 72 71 69 68 66 65 63 60 56 53 51 49 46 45 45 45 45 44 43 43 42 41
101 102 101 101 101 101 102 101 103 103 103 110 114 108 100 98 98 100 103 103 104 104 105 104 98 98 98 97 97 97 97 95 90 86 91 93 93 95 93 93 90 87 85 83 83 82 81 81 83 86 86 84 83 82 82 82 81 81 81 81 79 77 77 77 77 76 75 75 74 72 70 70 70 70 68 67 67 67 65 63 61 58 53 51 49 47 46 45 44 43 44 45 44 43 42 41 43
102 103 102 102 102 103 103 103 104 104 106 113 114 109 102 101 100 100 105 107 107 107 109 106 100 101 101 100 100 100 100 98 94 92 93 89 87 88 87 88 87 84 83 83 82 82 84 85 87 89 86 84 84 85 84 84 83 83 82 79 77 77 77 77 76 75 74 73 70 69 68 68 66 65 63 62 64 63 60 57 55 52 49 47 44 43 44 44 42 42 43 42 41 42 41 42 43
102 103 103 103 103 103 104 105 105 106 109 114 113 108 104 103 100 101 108 109 109 110 110 107 103 103 103 101 101 102 102 101 98 96 95 93 88 86 86 86 85 83 83 83 83 84 87 89 90 89 88 88 87 85 84 83 82 80 77 75 75 75 75 75 75 74 72 70 68 67 66 64 61 61 60 58 58 56 55 52 49 48 46 43 41 41 41 41 41 43 43 41 41 41 42 44 44
103 104 104 104 104 104 105 105 107 108 110 114 113 106 103 104 103 105 108 108 109 110 109 106 104 104 102 100 100 102 103 102 101 98 98 97 94 91 89 87 86 86 86 86 87 89 91 90 89 89 88 87 85 82 80 78 77 75 74 74 75 75 75 73 73 72 70 68 67 65 62 60 59 58 55 53 53 52 51 49 46 45 44 43 41 38 39 41 44 45 44 42 42 42 43 45 46
105 105 105 105 105 106 107 106 109 110 108 112 112 104 102 106 107 105 105 106 108 108 107 104 102 101 99 98 98 100 101 100 99 96 95 95 93 91 89 88 87 86 83 82 84 86 86 85 85 85 84 82 80 77 76 76 76 76 76 76 76 75 73 72 71 68 66 64 63 59 57 57 56 55 52 50 50 48 47 47 46 45 45 46 43 41 43 44 45 46 45 43 44 44 46 47 47
106 106 106 106 106 107 108 107 108 107 106 110 111 104 101 105 108 103 101 104 105 105 104 101 98 97 95 94 95 96 97 96 94 91 89 88 87 88 88 86 86 84 78 76 78 79 81 83 84 83 83 81 78 77 78 79 78 76 76 76 75 73 72 68 64 61 60 59 58 56 56 55 52 50 49 47 46 45 45 47 47 46 46 46 45 46 46 43 44 46 45 45 46 46 46 47 44
107 106 105 106 107 107 107 107 104 104 106 108 108 103 99 103 104 100 99 100 101 101 101 99 95 93 91 91 93 94 93 92 89 86 86 86 86 85 85 84 83 83 79 78 79 80 82 84 82 79 79 79 78 78 77 76 75 74 73 72 71 69 65 61 60 59 57 56 57 57 54 51 49 48 49 49 47 46 46 47 46 45 44 46 48 49 45 43 45 46 46 48 47 45 45 44 41
105 104 104 105 105 103 104 102 99 99 101 101 102 99 98 99 96 96 97 96 97 97 97 96 92 89 87 88 91 91 89 88 84 81 81 83 84 83 82 81 81 81 81 81 82 81 80 78 77 76 77 77 78 78 75 73 74 72 70 68 67 65 61 59 60 56 52 54 55 54 52 52 53 52 53 52 51 49 47 45 44 44 45 48 49 47 45 45 46 46 47 47 45 43 42 42 42
100 100 99 100 99 97 97 97 93 94 95 96 97 96 95 94 91 94 94 92 93 92 92 92 89 84 82 86 89 87 86 83 80 78 77 78 81 81 80 80 79 78 77 78 78 78 76 75 76 78 78 78 78 78 76 74 73 71 70 68 67 64 60 59 57 53 52 54 52 52 54 56 56 55 54 54 54 52 50 48 48 48 49 49 46 43 43 43 44 45 45 45 43 41 42 43 43
94 94 93 93 93 91 92 93 91 90 92 93 94 93 92 91 91 92 89 89 88 87 88 89 87 81 80 85 85 83 83 80 79 78 77 78 81 80 79 79 78 77 75 73 73 74 73 73 75 77 77 75 75 74 74 73 72 72 70 68 66 63 60 58 55 53 54 54 52 53 54 54 55 56 54 53 51 51 52 53 53 53 52 49 45 43 43 43 44 43 43 43 41 40 41 41 39
89 89 88 88 89 88 88 88 88 88 89 90 90 89 88 88 90 88 85 86 85 84 86 86 84 79 80 84 81 80 80 77 76 75 73 70 73 76 76 75 74 74 74 72 73 74 74 73 74 75 74 73 73 74 75 74 74 72 70 68 65 63 63 60 54 52 52 53 55 58 59 60 60 59 54 51 50 51 52 52 53 52 50 50 49 48 47 46 44 42 41 42 39 38 38 37 37
84 83 83 84 84 84 84 83 83 83 84 85 84 84 84 85 85 83 83 83 81 80 82 82 79 77 79 80 78 78 75 73 72 71 70 66 67 72 73 71 69 70 71 72 74 74 75 76 76 75 73 74 76 77 78 77 75 74 72 70 68 65 65 63 59 59 60 62 64 65 67 67 64 59 54 50 50 51 51 51 50 48 47 50 52 53 52 48 43 42 42 40 37 36 37 37 38
79 79 80 80 80 80 79 78 78 78 79 79 78 79 80 79 79 79 79 77 77 77 76 76 75 74 75 74 73 73 71 69 68 67 64 60 63 66 66 66 67 69 72 75 77 78 79 79 78 76 75 76 78 78 77 77 77 76 75 73 72 69 67 66 65 67 68 69 69 69 69 67 63 59 55 52 50 49 50 49 47 45 46 50 52 51 50 46 42 41 40 38 35 35 38 39 38
74 75 76 74 74 74 73 73 73 73 73 73 73 74 74 73 75 75 73 72 74 73 70 70 71 70 69 68 68 68 67 64 61 57 47 45 56 62 63 67 68 72 76 78 80 80 80 79 79 78 78 80 80 78 77 78 78 77 77 76 74 72 70 68 69 69 70 71 71 71 69 66 63 60 58 56 54 51 49 49 49 50 51 53 51 47 45 43 40 38 37 36 35 35 37 37 34
68 70 69 68 68 68 67 68 68 68 68 68 69 69 69 70 72 70 67 69 72 69 65 64 65 66 66 66 65 63 62 58 55 49 38 42 56 64 69 73 76 79 81 81 80 79 79 80 81 82 82 81 80 80 80 80 79 77 76 76 75 73 71 70 70 70 70 69 69 70 69 67 66 64 61 60 58 55 53 51 50 51 52 52 52 48 44 42 40 38 37 36 34 34 34 31 30
63 64 63 63 63 63 63 64 64 64 64 63 65 66 65 67 67 64 63 66 67 63 61 59 57 59 62 61 59 57 55 53 48 40 38 48 61 68 73 76 77 79 80 81 81 81 82 82 83 83 82 81 81 82 82 81 79 77 76 74 73 71 70 69 67 66 65 63 64 65 66 66 65 63 62 61 59 56 53 52 50 49 48 48 51 52 49 45 41 39 38 38 36 34 33 30 28
58 58 59 59 59 59 59 57 58 60 58 56 60 61 59 61 60 58 59 61 59 57 56 55 52 53 53 52 53 52 52 50 41 31 36 52 65 70 73 74 76 77 79 80 82 84 83 82 82 82 82 82 82 83 82 80 78 76 74 73 71 69 68 66 63 61 60 60 62 62 62 62 62 61 58 56 54 53 51 50 50 49 45 43 46 48 50 51 49 46 44 41 38 36 33 29 26
54 54 55 54 55 55 51 50 53 55 52 50 55 55 53 55 52 50 52 52 50 49 48 47 46 46 45 46 48 50 50 44 32 29 38 54 66 72 74 76 78 79 81 82 82 82 81 79 78 78 78 78 77 75 74 73 72 71 70 69 68 68 67 65 64 63 62 63 63 62 61 61 62 61 51 41 40 46 51 52 50 48 45 42 43 44 46 51 51 48 45 41 38 35 31 28 26
50 50 50 49 51 50 43 43 48 50 45 42 48 50 50 50 44 41 45 44 42 41 41 41 41 42 41 39 41 44 45 40 35 35 40 51 59 65 71 75 78 80 80 79 77 74 72 70 68 67 67 66 64 63 62 62 63 63 64 64 64 64 64 63 63 64 65 65 65 64 63 61 61 60 50 40 40 44 48 51 46 39 39 41 44 48 49 47 45 42 41 41 38 34 29 26 26
46 45 44 44 46 45 39 37 42 45 39 35 43 46 46 45 36 35 40 38 36 36 37 37 37 38 39 37 37 37 39 41 46 47 47 51 51 55 62 67 70 72 71 70 67 63 60 57 57 57 57 57 56 56 56 56 56 57 58 58 58 58 59 58 58 60 61 62 62 61 61 60 59 59 55 51 51 49 47 47 40 30 35 44 47 51 51 48 46 46 45 43 37 33 27 23 24
42 41 40 40 42 42 38 33 34 40 35 32 40 43 42 40 32 30 35 34 32 32 33 33 32 34 35 35 35 35 37 40 48 57 59 55 51 52 56 59 62 64 63 62 59 55 53 53 53 53 52 53 52 52 51 51 51 52 52 52 52 53 53 53 53 54 55 55 55 55 56 56 56 55 55 54 52 50 47 43 36 32 39 50 53 54 53 50 49 49 49 43 35 31 27 23 23
39 38 37 37 39 40 38 33 29 35 36 32 37 41 40 37 32 29 29 30 31 29 30 31 29 30 32 34 36 35 36 40 46 56 64 64 59 56 55 55 56 57 57 55 53 52 52 53 52 50 50 50 49 48 48 47 47 48 48 48 48 48 48 49 49 50 50 50 50 50 51 51 51 50 51 51 50 50 49 44 40 41 46 52 56 57 54 51 48 48 47 42 35 30 27 25 24
38 37 36 37 39 40 39 33 28 32 38 36 36 39 39 36 33 31 27 28 31 29 28 29 27 28 30 33 35 34 36 40 43 48 57 62 62 58 54 54 52 52 52 51 50 49 49 50 49 47 47 47 46 45 44 44 44 44 45 44 44 44 44 44 45 46 46 46 46 46 47 47 47 47 46 47 47 47 48 46 46 48 50 52 55 57 57 55 50 47 44 38 34 30 27 27 25
38 37 37 38 40 42 41 34 28 32 38 39 38 37 38 37 36 34 28 27 30 31 28 28 28 27 29 32 35 38 39 40 40 44 49 53 56 57 55 54 51 49 49 47 45 46 47 47 46 45 45 44 43 42 41 41 41 41 41 41 40 40 41 41 41 42 42 42 42 42 43 44 44 44 43 44 44 44 44 45 46 49 49 50 54 56 57 57 53 47 42 36 33 32 29 29 28
39 39 40 40 41 44 43 35 31 36 40 41 40 38 38 40 40 38 33 28 31 33 29 29 31 29 30 33 34 37 41 41 41 43 44 46 49 53 54 52 47 43 43 44 44 45 46 44 43 43 44 42 40 39 38 38 38 38 38 38 37 37 37 37 37 38 38 38 39 39 40 41 41 40 40 40 40 41 41 42 45 49 50 49 52 54 54 54 51 46 41 35 33 34 33 32 32
40 40 41 41 42 45 45 39 35 37 41 42 41 40 41 42 43 43 38 34 35 36 33 32 34 34 33 35 34 34 37 40 41 41 42 42 44 47 48 47 42 37 38 42 44 45 44 42 42 43 43 40 38 37 36 35 36 36 36 35 35 35 35 35 34 34 34 34 35 35 36 37 38 37 37 37 38 38 39 40 42 46 49 50 51 52 52 51 48 45 41 36 34 36 36 35 34
41 41 42 43 42 44 47 43 37 37 41 43 41 41 43 43 45 46 43 40 40 38 36 36 37 37 37 37 35 33 35 39 40 41 41 40 41 43 44 44 42 38 38 41 44 44 43 43 43 43 42 40 37 36 34 34 34 34 34 33 33 33 33 32 32 31 32 32 32 33 33 34 35 35 35 35 35 36 37 38 40 42 45 48 50 51 52 50 47 45 43 40 38 38 38 37 35
41 41 42 43 43 44 46 43 40 41 41 43 42 41 44 45 46 48 47 44 43 41 39 39 40 40 41 41 38 35 36 38 39 41 41 40 41 43 43 42 42 42 42 45 46 45 44 45 44 42 42 40 37 36 34 32 32 32 32 32 31 31 31 31 31 30 30 30 31 31 32 32 33 33 33 33 34 35 35 36 38 40 43 46 48 50 52 51 48 46 45 44 43 43 42 41 38
41 42 42 43 42 43 44 42 42 43 42 42 42 41 44 45 46 49 49 46 45 44 42 41 42 43 44 44 43 40 38 38 39 42 43 41 41 43 43 42 42 43 44 45 46 47 47 46 44 43 42 42 39 37 34 32 31 31 30 30 30 29 30 30 30 30 30 30 30 31 31 32 32 32 32 32 33 33 34 35 36 39 41 44 46 48 51 52 50 48 47 46 46 46 46 45 41
41 41 41 41 41 41 41 41 41 42 42 41 40 41 42 43 45 48 48 45 44 46 45 42 42 43 45 46 46 44 42 40 40 43 45 43 43 43 43 41 41 40 40 42 46 49 48 46 44 43 43 43 42 39 36 34 32 31 30 30 29 28 29 29 30 30 30 30 31 31 31 31 31 31 31 31 32 32 33 34 35 37 39 42 44 47 50 53 53 51 48 47 47 47 48 47 44
40 40 40 40 40 40 39 41 41 41 42 41 39 41 41 41 45 47 46 44 43 45 45 42 42 42 43 45 47 46 45 43 41 43 45 45 45 44 44 42 39 36 37 42 47 49 48 46 44 43 43 44 44 41 38 36 35 33 31 30 29 29 28 28 29 29 30 31 31 31 31 30 30 30 30 30 31 31 32 32 33 35 37 39 42 45 47 50 53 53 52 49 47 47 47 48 46
39 37 40 40 40 39 39 41 41 41 41 40 40 42 41 41 43 45 44 43 43 43 43 43 42 40 41 43 44 45 45 44 42 42 44 46 46 44 45 44 40 39 39 42 46 48 48 48 47 46 45 46 46 44 41 39 38 36 34 32 31 30 29 28 28 29 30 30 31 31 31 30 30 30 30 31 31 31 32 32 32 33 35 36 38 41 44 47 51 53 55 53 50 47 47 48 48
37 36 39 40 39 39 40 41 42 42 41 40 42 43 42 42 43 45 46 44 43 43 43 43 42 41 40 39 40 42 42 42 42 42 42 44 45 44 46 46 45 45 42 40 44 50 51 52 51 49 47 48 48 46 43 42 41 38 37 35 34 32 31 30 29 29 29 30 31 31 31 30 30 30 30 31 31 32 32 32 32 33 34 36 37 38 41 44 48 51 54 55 54 51 48 48 50
36 37 39 39 40 41 42 43 43 43 42 42 46 45 43 43 44 48 49 44 42 45 45 43 42 43 40 38 40 41 39 39 40 41 39 39 42 44 45 46 47 47 43 39 41 50 55 55 53 50 48 49 50 48 45 45 43 41 40 39 37 36 34 33 32 30 30 31 32 32 32 32 31 31 30 30 31 31 32 33 33 34 34 36 38 39 40 42 45 48 52 55 56 56 53 51 52
39 40 41 41 43 43 44 45 45 44 43 45 48 46 45 45 46 51 51 46 44 47 48 45 44 45 42 42 44 42 39 40 41 40 38 38 41 43 42 43 44 45 44 41 40 47 56 57 54 51 49 49 50 50 47 46 45 44 43 42 41 40 38 37 35 34 33 32 32 33 33 33 33 32 32 31 31 31 32 33 34 35 36 37 39 40 41 42 43 45 48 52 55 57 57 55 55
41 41 42 43 45 46 46 46 46 46 46 48 48 47 47 47 49 53 52 48 48 50 50 48 47 47 46 46 47 43 42 44 43 41 40 41 42 42 41 43 43 43 44 43 42 49 57 56 52 50 49 48 50 50 48 47 47 46 45 44 43 42 41 40 40 38 36 35 34 33 34 34 34 34 34 33 33 32 32 33 34 35 36 37 38 40 41 41 41 42 45 48 52 55 57 57 57
42 43 45 46 47 48 48 47 48 49 49 50 49 48 50 50 53 55 52 49 52 53 53 50 49 50 50 50 49 46 46 47 46 44 44 46 45 44 44 44 45 44 44 44 45 51 54 51 48 47 46 46 49 49 48 47 47 47 46 46 45 44 43 43 43 42 40 39 37 36 35 36 36 36 35 35 35 34 34 34 34 35 36 37 38 39 40 41 41 41 42 45 48 51 55 58 59
44 46 47 49 50 50 50 50 50 50 50 51 51 51 52 53 55 57 54 52 54 55 55 53 52 53 52 52 51 49 49 50 49 48 49 49 48 48 47 47 47 46 46 48 50 51 52 49 47 47 45 44 47 48 47 48 48 48 47 47 46 45 44 44 44 44 44 42 41 40 38 38 38 38 37 37 37 37 37 37 36 36 37 37 38 39 40 41 41 41 42 43 45 48 51 55 58
47 48 50 52 52 52 53 53 52 52 52 52 53 53 54 54 57 59 57 56 56 57 57 57 56 54 54 54 52 51 52 52 51 51 52 52 52 51 51 51 51 50 50 53 54 54 54 53 51 50 48 46 48 48 47 47 47 47 47 47 47 47 46 46 45 45 45 45 44 43 42 41 41 40 40 40 40 39 39 39 39 39 39 39 39 40 41 42 42 43 43 43 44 46 48 50 54
50 51 53 54 54 55 55 55 55 55 54 54 54 54 55 56 58 60 59 58 59 59 59 59 57 57 55 55 54 54 55 54 52 52 53 54 53 53 53 53 53 53 53 55 56 55 56 56 54 52 51 50 51 51 49 49 48 47 47 47 47 47 47 46 46 46 46 46 46 45 45 45 45 44 44 43 42 42 42 42 42 42 42 41 41 41 41 42 43 44 44 45 45 46 47 49 50
52 53 55 55 56 57 58 58 58 57 55 56 56 55 56 58 60 61 60 60 60 60 60 59 58 59 57 55 56 57 56 56 55 54 55 56 55 55 55 55 55 55 56 57 57 57 58 58 56 55 52 51 53 54 52 50 50 49 49 48 48 47 47 47 47 48 48 48 47 47 47 47 47 47 47 47 47 46 45 45 44 44 44 44 44 43 43 43 43 44 45 46 47 47 48 49 50
54 55 56 56 56 58 59 59 59 58 57 57 57 57 56 58 62 61 59 59 60 60 60 59 59 59 56 55 57 58 57 56 56 56 57 57 57 57 57 57 57 57 57 58 59 59 59 59 58 58 54 49 50 55 55 54 53 52 52 52 51 51 50 49 48 48 49 49 49 49 49 49 49 49 49 50 50 50 49 49 48 47 47 47 46 46 46 45 45 45 45 46 47 48 49 50 52
55 56 57 57 57 58 59 60 59 58 57 57 57 57 57 59 61 61 58 58 59 60 60 61 60 58 57 57 58 58 58 57 57 58 58 58 58 59 59 59 59 59 59 59 60 60 60 61 60 59 58 50 47 51 55 55 56 55 54 54 54 54 53 51 51 50 49 49 50 50 51 51 51 51 51 51 51 52 52 52 52 51 50 49 49 48 48 48 48 47 47 47 47 48 49 51 52
57 58 59 58 57 58 59 58 58 56 55 56 55 55 56 56 57 58 56 55 56 58 60 60 59 57 57 57 57 57 57 57 57 57 57 58 59 59 59 60 60 60 60 60 60 60 61 61 60 60 60 53 48 49 49 50 55 57 57 57 57 57 56 54 54 53 52 51 51 51 51 51 52 53 52 52 53 53 53 53 53 54 53 52 52 51 50 50 50 50 50 50 50 50 50 51 52
59 59 59 58 56 56 57 56 55 54 53 54 53 53 54 54 54 56 55 54 55 56 60 60 57 57 58 57 55 55 55 56 56 56 57 58 58 59 59 59 59 60 60 59 60 60 60 61 60 60 60 56 52 51 49 52 58 60 59 59 59 59 58 56 56 55 55 54 53 53 54 53 52 53 53 54 55 55 55 54 54 54 54 54 54 54 54 53 53 53 53 53 53 53 52 52 52
Wind_Direction
260 260 260 261 261 261 261 261 262 262 262 263 263 264 264 263 264 266 266 266 266 268 272 272 271 270 271 272 273 274 274 276 277 278 278 279 279 280 280 280 281 281 281 281 281 282 283 283 283 282 282 283 284 285 286 286 287 289 288 289 289 290 291 291 292 293 294 295 296 296 297 297 298 298 299 299 299 299 300 300 301 302 302 302 302 303 303 303 303 303 304 305 305 305 305 306 306
261 261 262 262 262 262 262 262 262 263 263 263 264 264 264 263 264 265 265 265 266 269 272 270 269 270 271 272 273 274 275 276 277 277 279 280 280 281 280 280 280 280 281 281 282 283 282 282 282 282 283 284 284 285 286 286 287 288 288 288 289 290 291 291 291 293 294 294 295 295 296 296 297 297 297 298 298 298 299 299 300 301 301 301 301 302 302 302 302 303 304 304 304 304 305 305 306
262 262 263 263 263 263 263 263 264 264 264 264 264 264 264 264 264 264 265 266 268 270 269 269 269 270 271 272 273 274 275 276 276 278 279 280 280 279 279 280 280 279 280 281 282 282 282 282 282 281 283 284 284 285 286 286 287 287 287 288 289 290 290 291 292 293 293 294 294 294 295 295 296 296 296 296 297 297 298 298 299 299 299 300 301 301 301 300 301 302 303 304 303 304 304 304 305
263 263 263 264 264 264 265 265 265 265 265 265 265 265 264 264 264 265 266 267 269 270 269 269 270 270 271 272 273 274 275 276 277 278 279 279 279 279 279 280 281 280 280 280 281 281 281 282 282 282 283 283 285 285 286 286 286 287 287 288 289 289 290 291 292 292 293 293 294 294 294 295 295 295 295 295 296 296 297 298 298 299 299 300 300 300 300 300 301 302 303 303 303 303 304 304 304
263 263 263 264 264 264 265 265 265 266 266 266 265 266 266 265 265 267 268 268 269 269 269 269 270 271 272 273 274 275 275 276 277 278 279 279 280 280 280 281 280 280 281 281 280 280 281 281 281 282 283 283 285 285 285 286 286 287 287 288 289 289 289 290 291 292 292 292 293 293 293 293 293 293 294 294 295 296 296 297 298 298 298 299 299 299 299 300 301 301 302 302 302 302 303 303 303
263 263 264 264 264 264 264 265 265 266 266 266 266 267 267 266 267 269 270 270 269 268 268 270 271 272 272 273 274 275 276 276 277 278 278 280 281 281 280 280 279 280 281 281 281 280 280 280 281 282 283 283 284 285 285 285 287 287 287 288 289 288 289 290 290 291 291 292 292 292 292 292 292 292 293 294 294 295 296 296 297 297 297 298 298 298 299 300 300 301 301 301 301 301 301 301 301
263 264 264 264 264 264 265 265 265 265 265 265 265 266 267 267 269 271 271 270 268 267 269 271 271 272 272 273 274 275 275 277 278 279 279 280 280 281 281 281 279 280 281 280 280 279 280 281 280 282 283 283 283 285 284 285 286 286 287 287 287 287 288 289 289 290 290 291 291 291 291 291 292 292 293 293 294 294 295 295 295 296 297 297 298 298 299 299 299 300 300 300 300 299 299 299 299
264 264 265 265 265 266 266 266 266 266 266 265 265 265 266 268 268 269 270 270 269 269 269 270 271 271 272 272 273 274 275 276 277 279 280 280 280 280 280 280 279 280 280 280 279 279 281 281 280 282 283 283 283 284 284 284 285 286 286 285 285 287 287 288 288 289 289 290 290 290 290 291 291 291 292 293 294 294 294 294 295 295 296 297 297 298 298 298 299 298 298 298 298 298 298 297 297
264 264 265 266 266 266 267 267 267 267 267 267 266 265 267 269 269 269 270 270 269 269 268 269 270 270 271 272 273 274 275 276 278 278 279 280 280 278 278 278 277 279 279 279 279 281 281 281 282 283 282 283 283 283 283 284 285 285 284 284 285 286 286 286 287 288 288 289 289 290 290 290 290 291 292 292 293 293 293 293 294 295 295 296 297 297 298 298 298 297 297 297 297 297 296 295 294
263 264 265 265 266 266 267 267 267 268 268 268 266 266 267 270 271 271 270 270 269 268 268 269 270 270 271 272 273 274 275 277 279 280 280 280 278 277 277 277 276 278 279 279 280 281 281 281 282 283 282 282 283 283 283 283 284 284 284 284 284 285 286 286 286 287 287 288 289 289 289 289 290 291 291 292 292 292 292 292 293 294 295 296 296 297 296 296 296 295 295 296 296 295 294 293 293
263 264 264 265 266 266 267 267 268 268 268 268 267 268 269 270 272 271 269 269 270 270 270 270 270 271 271 272 272 272 273 274 276 280 280 278 276 277 277 277 277 278 279 279 280 280 281 282 282 282 282 282 281 282 282 283 282 283 283 283 284 285 285 286 285 286 287 288 288 288 289 289 289 290 290 290 290 290 291 291 292 293 294 295 295 295 295 294 293 293 294 294 294 293 292 291 293
263 263 264 265 265 266 266 267 267 268 268 268 268 269 270 270 270 270 270 270 272 272 272 271 271 271 271 271 271 272 272 270 270 273 275 274 275 275 275 277 279 279 280 280 279 279 281 281 280 281 281 281 281 281 281 281 282 282 282 283 284 285 285 285 285 286 287 288 288 288 289 289 289 290 290 289 289 289 289 290 292 293 293 294 294 294 293 292 291 292 293 293 292 291 291 292 293
263 263 263 264 265 265 266 267 267 267 268 269 269 268 269 270 270 270 271 272 272 272 272 271 270 271 271 271 272 272 272 271 268 265 267 271 272 272 274 277 279 278 279 278 278 279 280 279 279 280 281 281 280 280 280 281 281 281 281 283 284 284 284 284 286 287 287 288 288 288 288 289 289 289 289 289 289 289 289 290 291 292 293 293 293 293 291 290 290 290 289 291 290 290 291 292 294
262 262 263 263 264 265 265 266 267 267 269 269 268 268 268 270 271 271 271 271 271 272 271 270 270 271 271 272 272 272 271 271 270 266 266 269 270 272 275 277 277 276 276 277 277 278 278 277 278 280 280 279 279 279 280 280 280 280 282 283 282 282 283 285 286 287 287 288 288 287 287 288 289 289 289 289 289 289 289 290 291 292 293 294 293 291 288 289 289 287 289 291 290 290 291 292 295
262 262 262 263 264 264 265 266 266 267 268 268 268 269 269 269 270 271 272 271 271 271 270 270 271 272 272 272 272 272 271 271 271 270 269 268 269 272 274 274 274 274 275 276 275 276 277 277 278 279 278 277 278 280 280 279 279 280 281 281 281 282 283 285 286 286 287 287 287 287 287 287 288 287 287 288 289 289 290 290 290 291 292 292 291 288 287 288 287 285 289 290 289 290 291 293 296
262 262 262 263 263 264 265 265 266 267 267 268 268 269 269 270 271 271 270 270 270 270 270 270 271 271 272 272 272 272 272 271 271 270 270 269 269 271 271 271 271 271 273 273 274 275 276 276 277 277 276 276 278 279 278 277 278 279 279 280 281 283 284 285 286 286 286 286 286 286 286 286 286 286 287 287 287 289 289 288 288 289 290 289 288 286 285 285 284 285 286 286 288 290 292 294 296
262 262 263 263 263 264 264 265 266 266 266 268 268 269 270 271 270 269 269 270 271 270 270 271 271 271 272 273 273 272 272 272 271 271 271 271 271 270 269 269 269 270 272 272 273 274 274 274 274 275 275 276 277 276 275 276 277 278 278 280 283 284 285 285 285 285 285 285 285 285 284 283 284 285 286 285 285 287 286 285 286 286 285 285 285 283 282 282 282 283 283 284 287 289 291 293 294
262 262 263 263 264 264 265 265 265 265 267 269 269 269 269 270 269 268 269 270 270 270 270 271 271 272 272 272 272 272 272 273 273 273 272 272 271 269 268 268 269 270 272 272 272 272 273 273 273 274 275 275 274 274 274 276 277 278 279 281 283 283 283 284 285 284 284 285 284 283 282 282 283 283 283 282 284 285 283 284 284 284 283 282 281 281 284 284 282 281 279 283 287 287 289 289 291
263 263 264 264 265 265 265 265 265 267 268 269 269 268 268 269 268 268 268 269 269 270 270 270 271 271 272 271 271 271 272 272 273 273 273 272 272 270 269 269 269 270 270 270 270 272 273 273 274 274 274 274 274 273 274 275 276 278 279 280 281 281 282 283 283 283 284 284 282 280 280 281 280 279 279 279 281 282 282 284 284 285 283 279 281 286 287 285 282 278 278 283 286 287 287 287 288
264 264 265 265 265 265 266 266 267 268 268 268 268 268 268 267 268 268 268 268 269 269 269 269 270 270 270 270 271 271 271 271 273 273 273 273 273 271 271 270 269 269 269 268 268 271 272 273 273 274 274 274 274 275 274 275 277 278 279 280 279 280 281 281 281 284 286 284 280 279 278 277 276 274 274 275 278 279 279 281 282 281 278 279 285 287 285 282 281 278 279 283 284 284 285 285 285
265 266 266 266 266 266 267 267 267 267 267 267 268 267 266 266 268 268 267 267 267 268 269 269 269 269 270 270 270 270 271 272 273 273 274 274 273 272 271 271 271 271 270 269 268 269 270 270 271 272 273 273 273 274 274 276 277 277 278 279 278 279 278 278 280 284 286 283 279 277 274 273 273 272 271 273 277 276 274 275 276 275 275 281 286 283 281 280 279 280 281 283 282 281 282 282 282
266 266 266 266 266 267 267 267 266 266 266 266 267 267 266 267 266 266 266 266 267 268 268 269 268 268 269 269 269 270 271 271 271 270 270 272 272 273 273 272 273 273 271 269 269 269 270 270 270 272 271 271 273 274 274 275 276 276 277 278 278 278 276 275 278 280 279 275 272 272 272 272 272 270 271 273 276 273 268 269 270 272 276 281 281 278 279 278 278 281 283 283 282 281 281 280 281
267 266 267 267 268 267 267 268 267 266 267 267 267 267 267 267 266 265 267 266 266 266 267 267 267 267 267 267 268 269 270 270 270 269 268 269 272 273 274 274 273 272 270 268 269 270 271 270 270 271 271 272 274 273 273 274 276 277 278 278 278 277 275 275 276 274 270 267 267 269 271 272 272 273 274 273 272 269 266 268 270 272 276 276 275 277 278 277 280 283 283 283 282 282 282 279 279
267 268 268 268 268 268 268 268 268 268 268 268 268 268 267 267 266 267 266 266 266 266 266 267 267 267 266 266 267 268 269 268 268 269 269 270 272 272 272 273 271 268 268 269 271 272 272 272 271 270 272 274 273 273 275 276 278 279 279 278 277 275 274 275 273 268 265 265 268 269 270 273 274 275 275 271 268 267 268 270 270 272 272 269 271 278 277 276 279 282 281 282 282 281 279 276 279
268 268 268 268 269 269 269 269 269 268 268 268 268 268 267 267 267 267 266 266 266 266 266 267 267 266 265 266 266 267 267 268 268 268 269 269 267 268 268 269 269 267 268 270 272 273 273 273 272 271 270 270 272 274 276 277 278 278 277 277 275 274 273 272 270 267 267 267 268 270 271 273 273 273 272 269 268 269 270 270 269 267 266 266 272 277 275 274 278 280 280 280 281 277 274 276 282
268 268 268 268 269 269 269 269 269 268 268 268 268 268 267 267 267 266 266 267 266 265 265 266 266 265 265 266 266 266 266 268 268 269 272 270 264 263 264 265 266 266 268 270 272 272 272 271 270 269 268 270 272 274 276 276 277 277 276 275 274 273 272 271 269 268 267 267 267 268 269 270 271 270 270 269 270 270 268 266 265 262 261 266 272 274 271 272 278 279 276 276 276 273 272 278 282
268 268 268 269 269 269 270 269 269 269 269 269 269 268 268 268 266 266 267 266 265 265 265 265 264 264 264 264 264 264 265 266 267 271 273 265 262 262 262 265 266 268 270 271 272 271 269 269 268 268 270 271 273 273 274 274 274 273 273 273 273 272 271 270 269 268 267 266 265 264 265 267 267 267 268 268 269 269 266 264 264 263 262 264 266 268 269 271 275 274 268 267 270 270 274 279 279
267 268 269 269 269 270 270 269 270 270 269 269 269 268 268 267 266 267 267 265 265 266 265 264 264 263 261 261 262 262 263 263 265 269 264 252 258 262 263 266 268 269 271 271 271 270 269 269 270 271 272 273 273 273 273 273 272 271 271 271 271 271 271 270 268 267 266 265 264 262 262 263 264 266 267 267 268 268 264 263 265 264 263 261 260 261 266 269 270 268 263 263 266 268 276 281 275
268 269 269 269 269 269 269 270 271 270 269 270 269 267 267 266 266 267 266 264 265 265 263 262 261 261 260 261 262 262 261 261 263 267 261 253 257 262 264 266 268 269 269 269 269 270 271 272 272 273 273 273 274 275 274 274 273 271 270 270 270 270 269 269 267 265 264 263 262 262 262 263 264 265 265 267 267 266 263 263 264 263 261 260 258 258 262 263 263 265 263 263 263 267 279 280 270
268 269 269 269 269 269 270 271 271 270 269 269 268 267 267 267 267 267 265 265 266 265 263 261 259 258 258 258 258 258 258 259 260 256 252 254 258 262 265 265 266 267 267 268 269 270 272 272 272 273 273 274 275 275 275 273 273 272 271 270 269 268 266 265 264 263 262 261 263 264 265 265 265 265 266 267 267 265 262 263 263 261 260 261 259 259 261 259 258 261 262 262 263 268 276 272 261
268 268 269 269 269 269 271 271 269 269 269 270 269 269 267 266 267 268 267 267 266 264 263 261 258 256 255 253 252 251 252 251 243 235 243 254 260 261 262 263 264 264 265 267 269 270 271 271 272 273 273 274 274 274 274 273 273 272 272 270 269 267 264 261 260 260 261 261 263 265 265 265 266 265 265 264 265 264 262 262 263 264 263 262 257 254 256 256 255 257 257 259 264 269 270 261 255
267 268 268 268 268 268 268 269 270 270 270 272 271 270 268 266 267 268 267 265 265 263 260 258 257 255 252 250 248 246 245 237 219 220 236 249 257 259 258 260 261 262 264 266 268 270 271 271 272 273 272 272 273 275 275 274 274 273 272 270 269 267 264 262 260 259 259 259 261 262 262 262 262 262 260 256 255 258 261 261 262 265 264 259 254 248 249 253 252 251 252 257 264 266 261 252 252
265 266 267 268 269 269 266 267 272 273 271 272 272 271 270 269 267 266 266 265 264 262 258 256 255 254 251 246 242 241 241 233 218 216 227 241 253 258 257 258 260 262 265 266 268 270 270 271 273 273 274 275 276 277 277 276 275 274 272 271 270 268 267 265 263 261 260 260 260 260 260 259 259 259 258 254 252 253 258 258 255 252 250 248 246 244 246 250 249 248 252 256 262 261 250 244 248
264 265 266 268 270 271 266 262 269 275 272 269 271 272 272 272 268 264 268 267 262 261 258 254 251 250 248 243 238 235 236 233 222 219 227 240 251 256 256 258 261 263 265 267 268 269 271 273 276 278 280 282 282 282 281 279 277 275 273 272 271 270 269 267 265 264 262 262 261 260 259 258 258 257 256 254 252 251 250 253 248 239 240 241 240 240 244 249 248 248 251 254 258 253 239 235 243
264 265 266 268 269 270 268 262 264 273 274 268 269 273 274 275 272 264 266 268 263 258 258 255 248 246 244 240 235 232 230 227 224 224 229 238 246 252 256 259 261 263 264 267 269 271 273 275 278 281 284 285 285 284 282 280 278 277 274 273 272 270 269 267 266 265 263 263 261 260 258 257 256 255 254 253 251 247 244 243 237 232 236 239 240 238 238 245 248 248 249 251 251 244 233 232 240
265 266 267 268 269 270 269 266 263 268 272 270 269 273 277 278 275 268 263 267 267 261 258 257 251 245 243 240 233 230 229 224 225 230 232 237 243 249 254 257 260 263 265 268 271 274 275 276 280 285 286 285 284 283 282 280 278 276 274 273 271 269 268 266 265 264 263 261 260 258 257 256 255 253 251 250 249 246 243 240 233 230 235 236 237 236 236 241 247 246 245 245 242 235 230 231 232
267 268 268 269 270 271 270 267 266 268 270 272 271 273 277 277 276 272 264 263 267 264 259 258 255 247 243 241 234 233 236 234 233 238 239 241 245 248 252 255 259 264 267 269 272 274 275 278 284 286 285 284 282 281 280 279 277 275 274 272 271 269 267 266 264 263 262 260 258 257 255 254 253 251 249 248 247 245 242 239 233 231 235 234 233 235 236 239 243 243 239 237 235 229 225 226 226
267 268 269 270 270 271 272 270 268 269 269 270 272 273 274 275 275 275 270 265 265 266 263 261 259 252 245 243 238 238 242 243 243 245 245 245 247 249 250 253 256 262 266 268 269 271 275 281 286 284 282 282 281 281 280 279 277 276 274 273 271 269 267 265 263 262 261 259 257 255 253 253 252 250 248 246 245 243 240 238 235 233 235 236 233 233 234 236 239 238 233 231 230 225 223 224 226
266 267 268 269 269 271 272 270 266 267 269 270 272 273 273 274 274 275 274 269 266 266 264 262 261 257 252 248 242 240 244 247 246 246 246 245 245 247 249 252 256 257 260 264 267 269 274 281 283 281 280 280 280 280 280 280 278 277 275 274 272 270 268 266 264 262 260 258 256 254 253 251 250 249 247 245 243 242 239 236 235 234 235 236 234 232 232 233 234 232 228 227 226 224 224 224 226
265 266 267 267 268 269 271 272 271 269 269 270 271 272 272 273 273 272 271 269 266 265 264 263 263 262 260 256 249 244 246 250 250 250 249 247 248 249 251 255 257 255 254 259 264 268 274 278 278 278 279 279 279 280 280 280 278 276 275 274 272 270 269 268 266 263 261 258 256 254 252 250 249 248 246 245 243 241 239 236 235 235 235 235 233 231 231 230 230 228 224 222 221 221 223 225 226
264 265 266 267 268 269 271 274 275 271 269 270 271 271 270 270 270 270 270 269 268 267 266 265 265 265 264 263 259 252 249 251 254 255 253 251 252 254 254 254 256 255 254 257 262 266 272 276 275 276 277 278 278 279 280 279 277 275 275 274 272 270 269 268 266 264 261 259 256 254 252 250 248 247 246 244 243 241 239 236 235 234 234 234 232 230 230 229 228 224 221 220 219 219 222 226 226
263 264 264 266 267 269 271 272 272 271 270 269 269 268 268 268 269 269 269 269 270 269 267 265 265 265 265 265 263 260 256 254 256 258 257 255 255 256 255 253 255 257 257 258 261 265 270 273 273 273 275 277 277 277 277 277 275 274 274 273 271 269 267 266 264 262 260 258 256 254 252 250 248 247 246 244 243 241 239 237 235 233 233 234 233 231 230 229 228 224 222 221 220 221 225 228 228
262 263 264 265 266 267 268 268 267 268 269 268 268 267 266 267 267 267 268 269 269 269 268 265 264 264 265 266 266 264 261 258 257 259 260 259 257 256 255 257 258 260 261 260 262 267 271 270 270 272 273 274 275 274 274 273 272 272 272 272 271 268 266 265 263 261 258 256 254 253 252 252 251 249 248 246 244 243 242 239 237 234 233 233 233 232 230 230 229 225 222 221 221 223 226 228 227
260 261 263 263 264 264 265 266 266 266 266 267 267 266 265 265 265 266 268 269 268 268 269 268 266 265 265 266 266 266 265 262 259 259 261 261 260 259 259 260 259 257 259 262 265 271 272 268 268 270 271 272 273 272 272 271 269 269 270 270 270 269 266 264 262 260 258 256 253 251 250 250 250 249 249 248 247 246 245 244 242 238 236 234 234 233 232 231 230 228 224 221 221 223 225 226 225
260 261 263 263 263 264 264 265 266 265 266 268 267 266 266 265 266 268 269 269 268 268 269 268 267 266 264 265 266 266 266 265 262 259 259 261 261 261 261 260 255 252 257 264 269 273 271 268 267 269 270 270 270 269 269 268 267 267 267 267 267 267 266 264 261 259 257 255 252 249 247 246 246 246 247 247 248 248 248 247 245 243 240 237 236 235 234 234 233 230 227 224 223 224 224 223 223
260 261 262 264 264 264 263 263 264 264 266 267 266 266 267 267 267 268 267 267 269 269 268 268 268 267 264 264 265 265 265 266 265 261 258 259 260 259 259 259 256 255 255 257 264 270 270 268 268 269 269 269 269 268 266 266 265 265 265 265 265 264 263 262 260 258 255 253 251 248 245 243 244 245 246 246 246 246 247 247 247 245 241 238 237 237 237 236 235 233 231 228 226 227 226 224 223
261 261 262 263 263 262 262 262 263 264 266 266 265 265 265 266 268 268 268 269 269 270 269 269 270 269 268 267 266 263 264 266 265 263 262 261 260 258 257 258 258 258 256 249 252 264 267 266 268 269 268 269 269 267 266 265 265 264 263 263 263 263 262 260 259 257 254 251 249 247 244 242 242 243 244 244 244 244 243 244 245 245 243 239 236 237 239 239 238 237 235 232 230 230 230 228 226
263 262 263 263 263 262 262 263 264 265 265 264 265 266 267 267 267 267 269 271 270 270 270 270 270 270 270 269 267 266 266 265 264 265 265 262 261 261 260 259 258 258 257 249 244 254 261 263 267 268 267 268 268 267 266 265 265 264 263 262 262 261 262 261 260 257 255 252 250 247 244 243 242 242 242 242 243 243 243 242 242 243 243 241 238 237 239 240 240 239 239 238 235 233 233 232 232
263 264 264 264 263 263 263 264 265 266 265 264 265 267 268 268 267 266 269 272 271 270 269 270 270 271 270 268 267 268 267 266 266 267 266 262 261 262 262 262 261 259 259 253 243 247 255 260 265 266 265 265 266 266 265 264 264 264 263 263 262 261 261 261 261 259 257 255 252 249 246 244 243 243 243 242 242 243 244 243 242 241 241 242 241 241 241 242 242 241 240 240 239 238 237 236 236
264 264 264 264 264 264 264 264 264 264 265 265 266 267 267 267 267 268 269 270 269 269 268 269 269 269 269 269 269 269 268 267 267 266 265 264 263 263 262 261 261 261 262 259 252 251 257 261 263 264 263 263 264 264 264 264 263 263 262 262 262 262 261 260 260 260 259 258 256 253 249 247 246 244 244 244 244 244 244 245 244 243 242 241 241 242 243 243 243 242 241 241 241 240 240 239 239
263 263 263 263 263 263 263 263 263 263 264 265 266 266 265 266 266 268 269 268 267 268 269 268 267 267 268 268 269 269 269 268 267 266 266 266 266 265 264 262 262 262 261 261 260 260 262 264 264 264 263 263 263 264 264 263 263 263 263 262 262 262 261 260 260 260 259 259 258 256 254 252 249 247 246 245 245 245 245 245 245 245 244 242 241 240 241 243 244 244 243 242 242 241 241 241 241
263 263 264 263 263 264 264 265 264 264 264 264 265 265 265 265 265 266 266 265 265 266 267 267 267 268 268 269 270 270 269 268 268 268 268 268 268 267 266 265 264 263 261 261 262 264 265 265 265 265 264 263 263 263 263 263 264 264 263 263 262 262 261 260 260 260 259 259 259 258 257 256 254 251 249 248 247 247 247 247 246 246 246 244 243 242 241 241 242 244 244 244 243 243 242 242 242
263 264 264 264 265 265 265 265 265 265 265 265 265 265 265 265 264 264 265 264 264 265 265 267 268 269 269 269 270 270 269 269 269 269 269 269 268 268 268 267 266 266 265 264 265 265 266 267 266 266 265 265 264 264 264 264 264 263 263 263 262 262 261 261 260 259 259 259 259 259 258 258 256 254 252 251 250 249 248 248 248 247 247 246 245 245 244 243 242 242 243 244 244 244 244 244 244
262 263 264 265 266 266 266 266 266 266 266 265 265 264 264 264 263 263 264 265 265 265 265 266 266 267 268 269 269 268 269 270 270 269 269 269 269 269 268 268 268 268 268 268 268 268 268 268 268 268 268 268 267 266 265 264 264 263 263 263 262 262 261 260 259 259 259 259 260 260 259 259 258 257 255 253 252 251 251 250 249 248 248 247 246 246 246 246 245 243 243 243 244 245 245 245 245
262 262 263 265 266 266 267 267 267 267 266 265 265 264 262 262 262 263 264 265 266 266 266 266 265 265 266 266 266 266 267 267 268 268 268 268 269 269 269 269 269 269 269 269 269 269 269 270 270 270 270 268 269 271 271 267 265 264 262 262 262 261 260 260 259 258 258 258 258 258 259 259 259 258 257 256 255 253 252 252 251 250 249 248 247 247 247 247 247 246 245 244 244 245 246 246 246
262 262 263 263 264 265 266 266 266 266 266 265 264 263 262 262 263 265 264 265 266 267 267 265 265 266 266 265 265 267 267 267 267 266 266 267 267 268 268 268 268 268 268 268 268 269 269 270 270 270 270 268 267 272 274 271 268 265 264 263 262 261 261 260 260 259 258 258 257 257 256 257 257 257 257 257 257 255 254 254 253 252 251 250 249 248 248 247 248 248 248 247 246 246 246 247 247
263 263 263 264 264 264 264 265 266 266 265 264 264 263 263 263 264 266 266 266 267 268 268 267 267 267 266 265 265 266 267 267 266 266 266 267 267 267 267 268 268 268 268 268 268 268 268 268 268 269 269 267 262 263 265 265 265 266 265 264 264 263 262 261 260 259 258 258 258 257 256 254 254 254 255 255 256 256 255 254 254 254 253 252 251 250 249 248 248 248 248 248 248 247 247 247 247
264 264 264 264 263 262 262 263 264 264 264 264 264 263 263 264 264 265 265 265 266 267 268 268 269 269 268 267 266 266 267 267 268 268 268 268 268 268 268 269 269 269 269 268 268 268 268 268 267 267 267 265 261 257 255 256 261 265 265 264 264 263 263 262 261 260 259 258 257 258 258 256 253 252 253 253 254 254 254 254 254 254 254 253 253 252 251 250 249 248 248 248 248 248 248 248 248